Location: Middelsbur
(53.6609°N, 7.5020°E)
Time: 12:41:21
(UTC+00:00)

Genesis I - Pass Details

Date: 06 July 2020
Orbit: 509 x 513 km, 64.5° (Epoch: 06 August)

Event Time Altitude Azimuth Distance (km) Brightness Sun altitude
Exits shadow 22:00:58 15° 180° (S) 1,454 4.9 -11.1°
Maximum altitude 22:03:38 32° 123° (ESE) 903 4.0 -11.3°
Drops below altitude 10° 22:07:07 10° 60° (ENE) 1,740 6.0 -11.4°
Sets 22:09:26 0° 50° (NE) 2,630 7.1 -11.6°
